Home   Weather   Redmond   Past weeks

Flag for USA Past Weather in Redmond, Washington, USA — Yesterday and Last 2 Weeks

Now
43 °F

Overcast.


Feels Like: 43 °F
Forecast: 41 / 48 °F
Wind: No wind

Location: Seattle Boeing Field

Current Time: Jan 17, 2017 at 1:04:23 am

Latest Report: Jan 16, 2017 at 11:53 pm


Visibility: 10 mi

Pressure: 29.94 "Hg

Humidity: 62%

Dew Point: 31 °F

Location of RedmondLocation

Past Weather in Redmond — Graph

°F

Redmond Temperature Yesterday

Maximum temperature yesterday: 46 °F (at 12:53 pm)
Minimum temperature yesterday: 28 °F (at 6:53 am)
Average temperature yesterday: 39 °F

High & Low Weather Summary for the Past Weeks

 TemperatureHumidityPressure
High46 °F (Jan 16, 12:53 pm)100% (Jan 8, 6:53 pm)30.46 "Hg (Jan 8, 6:53 pm)
Low18 °F (Jan 6, 7:53 am)27% (Jan 4, 11:53 am)29.44 "Hg (Jan 8, 2:53 pm)
Average33 °F69%30.06 "Hg
* Reported Jan 1 11:53 pm — Jan 16 11:53 pm, Redmond, Weather by CustomWeather, © 2017

Note: Actual official high and low records may vary slightly from our data, if they occured in-between our weather recording intervals... More about our weather records

Advertising

Redmond Weather History for the Previous 24 Hours

Scroll right to see more
 ConditionsComfort  
Time TempWeatherWind HumidityBarometerVisibility
11:53 pm
Mon, Jan 16
43 °FOvercast.No wind62%29.94 "Hg10 mi
10:53 pm43 °FOvercast.No wind62%29.95 "Hg10 mi
9:53 pm45 °FOvercast.3 mph56%29.97 "Hg10 mi
8:53 pm45 °FOvercast.7 mph60%29.98 "Hg10 mi
7:53 pm45 °FOvercast.10 mph60%30.00 "Hg10 mi
6:53 pm46 °FOvercast.9 mph56%30.00 "Hg10 mi
5:53 pm44 °FMostly cloudy.6 mph65%29.99 "Hg10 mi
4:53 pm44 °FMostly cloudy.7 mph65%30.01 "Hg10 mi
3:53 pm46 °FOvercast.7 mph61%30.03 "Hg10 mi
2:53 pm46 °FOvercast.7 mph61%30.05 "Hg10 mi
1:53 pm46 °FOvercast.3 mph61%30.06 "Hg10 mi
12:53 pm46 °FPartly sunny.3 mph58%30.09 "Hg10 mi
11:53 am42 °FPartly sunny.8 mph65%30.13 "Hg10 mi
10:53 am40 °FPartly sunny.No wind60%30.17 "Hg10 mi
9:53 am36 °FPassing clouds.No wind75%30.18 "Hg10 mi
8:53 am33 °FPassing clouds.No wind82%30.20 "Hg10 mi
7:53 am29 °FScattered clouds.8 mph93%30.19 "Hg10 mi
6:53 am28 °FClear.7 mph93%30.21 "Hg10 mi
5:53 am31 °FClear.3 mph89%30.22 "Hg7 mi
4:53 am30 °FPassing clouds.No wind92%30.24 "Hg7 mi
3:53 am30 °FPassing clouds.No wind89%30.25 "Hg8 mi
2:53 am33 °FPassing clouds.3 mph82%30.27 "Hg9 mi
1:53 am34 °FOvercast.No wind82%30.26 "Hg8 mi
Weather by CustomWeather, © 2017

See weather overviewHow to use our weather pages